Weather Roundup
Issued by NWS Corpus Christi, TX

Home | Current Version | Previous Version | Text Only | Print | Product List | Glossary On
Versions: 1 2 3 4 5 6 7 8 9 10 11 12 13 14 15 16 17 18 19 20 21 22 23 24 25 26 27 28 29 30 31 32 33 34 35 36 37 38 39 40 41 42 43 44 45 46 47 48 49 50
000
ASUS44 KCRP 302310
HRRCRP

SOUTH TEXAS REGIONAL WEATHER ROUNDUP
NATIONAL WEATHER SERVICE CORPUS CHRISTI TX
600 PM CDT SUN APR 30 2017


TXZ229>244-010000-
...CORPUS CHRISTI AREA OBSERVATIONS...

CITY           SKY/WX    TMP DP  RH WIND       PRES   REMARKS
CORPUS CHRISTI SUNNY     83  38  20 N15G22    29.88S
NAS CORPUS CHR SUNNY     84  42  22 N13       29.88F
ROCKPORT       SUNNY     82  38  20 NW6       29.88F
KINGSVILLE NAS SUNNY     85  36  17 N14       29.87F
ALICE          SUNNY     85  27  12 N12       29.87F
ORANGE GROVE   SUNNY     85  27  12 NW16G25   29.88F
FALFURRIAS     SUNNY     85  27  12 N9        29.87F
$$

...VICTORIA AREA OBSERVATIONS...

CITY           SKY/WX    TMP DP  RH WIND       PRES   REMARKS
VICTORIA       SUNNY     80  41  24 NW7       29.88F
BEEVILLE       FAIR      83  34  17 W8G22     29.88F
PLEASANTON     SUNNY     80  31  17 NW15      29.89S
SAN ANTONIO    SUNNY     78  35  21 NW17      29.89F
$$

...LAREDO AREA OBSERVATIONS...

CITY           SKY/WX    TMP DP  RH WIND       PRES   REMARKS
LAREDO         SUNNY     85  32  15 N13G18    29.87F
COTULLA        SUNNY     84  26  12 N17G30    29.89S
DEL RIO        SUNNY     83  30  14 NW5       29.84F
MCALLEN        SUNNY     89  36  15 NE8G17    29.87F
HEBBRONVILLE   SUNNY     82  27  13 N12       29.89S
$$

...OTHER TEXAS OBSERVATIONS...

CITY           SKY/WX    TMP DP  RH WIND       PRES   REMARKS
BROWNSVILLE    SUNNY     79  53  40 E16G23    29.89S
HOUSTON        SUNNY     75  39  27 W12G18    29.89S
COL. STATION   SUNNY     74  37  26 NW12      29.89R
AUSTIN         MOSUNNY   78  35  21 NW10      29.87F
WACO           MOSUNNY   73  36  25 W13G22    29.86R
FORT WORTH     MOSUNNY   67  33  28 W32G39    29.81R
WICHITA FALLS  PTSUNNY   53  32  44 W36G47    29.82R
LUBBOCK        MOSUNNY   64  22  20 NW18G33   29.89F
EL PASO        MOSUNNY   75   8   7 W17G26    29.96F
$$

...MARINE OBSERVATIONS...

STATION/POSITION TIME  SKY/WX   TEMP    WIND        PRES    VSBY  WAVE   SWELL
                                AIR SEA DIR/SP/G                  HT/PER HT/PER
                 (UTC)          (F)     (DEG/KT/KT) (MB)    (MI)  (FT/S) (FT/S)
PORT ARANSAS     2300            78 77  360/ 10/ 12 1012.5F
BUOY 90 E PORT A 2150            70 77  330/  8/ 12 1013.1          7/ 9   7/ 9
BUOY 45 SE BAFFI 2150            71      30/ 12/ 16 1012.1          7/ 9   7/ 9
BUOY 200 E PT IS 2150            76 79  360/ 19/ 25 1011.3         10/10   5/10
BUOY 15 E GALVES 2150            69 76  300/  8/ 10 1012.7          4/10   3/10
$$



USA.gov is the U.S. government's official web portal to all federal, state and local government web resources and services.